Torna al catalogo

STARLINK-4016

AttivoComunicazioniVLEO
NORAD 52603·PAYLOAD·🇺🇸 United States

Lanciato May 14, 2022 da Cape Canaveral Space Force Station

Loading…

Prossimi Passaggi (prossime 24 ore)

TLE

AggiornatoSource: CelesTrak SupGP

Epoca: Sep 14, 2026, 21:39 UTC

1 52603C 22052F   26257.90256944 -.00022104  00000+0 -71065-3 0  2577
2 52603  53.1565 134.9000 0001124  94.5703  25.3469 15.31720209    16

Traccia STARLINK-4016 in tempo reale con AllMySat

Download on the App Store